Location: Newark
(27.9675°N, 86.8869°E)
Time: 12:44:51
(UTC+00:00)

Vanguard 3 - Pass Details

Date: 24 October 2019
Orbit: 508 x 3263 km, 33.4° (Epoch: 20 November)

Event Time Altitude Azimuth Distance (km) Brightness Sun altitude
Rises 00:19:04 0° 263° (W) 3,540 9.8 -0.6°
Reaches altitude 10° 00:22:29 10° 240° (WSW) 2,985 9.6 0.2°
Maximum altitude 00:26:41 16° 206° (SSW) 3,048 10.0 1.1°
Drops below altitude 10° 00:32:10 10° 173° (S) 4,099 11.1 2.2°
Sets 00:38:28 0° 155° (SSE) 5,750 12.1 3.6°
